Location: Branche des Alpilles
(43.6087°N, 4.6976°E)
Time: 10:21:39
(UTC+00:00)

FENGYUN 1C DEB - Pass Details

Date: 29 June 2021
Orbit: 782 x 878 km, 99.7° (Epoch: 28 July)

Event Time Altitude Azimuth Distance (km) Brightness Sun altitude
Exits shadow 02:47:07 14° 238° (WSW) 2,113 ? -11.2°
Maximum altitude 02:49:19 17° 267° (W) 1,896 ? -10.9°
Drops below altitude 10° 02:52:43 10° 308° (NW) 2,355 ? -10.5°
Sets 02:55:50 0° 328° (NNW) 3,282 ? -10.1°
